N825MD WSSL-WAMP

Flight info

Callsign N825MD
Flight time N/A
Altitude 39000
Route VTK M635 JUNHA M774 OBDOS L504 ADKON/N0400F410 L504 OSRUT W36 RIKMU
Aircraft C25B/M-SDE2E3FGHRWXY/LB1

Departure

Time 2026-04-26 05:59
Airport Seletar Airport (WSSL)

Arrival

Time N/A
Airport Indonesia Morowali Industrial Park (IMIP) Airport (WAMP)
Time Latitude Longitude Altitude Speed Heading
2026-04-26 05:46 1.41798 103.87090 27 ft 0 kts 301°
2026-04-26 05:53 1.41804 103.87082 27 ft 5 kts 307°
2026-04-26 05:53 1.41803 103.87028 27 ft 9 kts 229°
2026-04-26 05:54 1.41752 103.86993 28 ft 9 kts 213°
2026-04-26 05:54 1.41702 103.86960 29 ft 9 kts 213°
2026-04-26 05:54 1.41653 103.86927 30 ft 8 kts 213°
2026-04-26 05:54 1.41606 103.86897 31 ft 8 kts 211°
2026-04-26 05:55 1.41559 103.86868 32 ft 8 kts 211°
2026-04-26 05:55 1.41514 103.86840 33 ft 8 kts 213°
2026-04-26 05:55 1.41439 103.86788 35 ft 18 kts 212°
2026-04-26 05:55 1.41319 103.86711 38 ft 21 kts 213°
2026-04-26 05:56 1.41201 103.86633 40 ft 20 kts 213°
2026-04-26 05:56 1.41089 103.86560 43 ft 19 kts 213°
2026-04-26 05:56 1.40982 103.86489 45 ft 18 kts 213°
2026-04-26 05:56 1.40879 103.86424 47 ft 17 kts 213°
2026-04-26 05:57 1.40805 103.86375 49 ft 7 kts 213°
2026-04-26 05:57 1.40798 103.86336 49 ft 7 kts 302°
2026-04-26 05:57 1.40826 103.86294 49 ft 8 kts 304°
2026-04-26 05:57 1.40866 103.86243 47 ft 10 kts 331°
2026-04-26 05:58 1.40932 103.86271 46 ft 17 kts 33°
2026-04-26 05:58 1.41163 103.86421 43 ft 65 kts 33°
2026-04-26 05:58 1.41667 103.86746 32 ft 107 kts 32°
2026-04-26 05:58 1.42356 103.87198 209 ft 126 kts 34°
2026-04-26 05:59 1.43097 103.87694 539 ft 135 kts 33°
2026-04-26 05:59 1.43937 103.88182 834 ft 142 kts 28°
2026-04-26 05:59 1.44794 103.88696 1174 ft 147 kts 31°
2026-04-26 05:59 1.45716 103.89212 1625 ft 154 kts 30°
2026-04-26 06:00 1.46662 103.89749 2132 ft 157 kts 31°
2026-04-26 06:00 1.47301 103.90583 2599 ft 163 kts 83°
2026-04-26 06:00 1.46927 103.91651 3116 ft 168 kts 121°
2026-04-26 06:00 1.46272 103.92616 3636 ft 167 kts 115°
2026-04-26 06:01 1.45733 103.93640 4158 ft 166 kts 115°
2026-04-26 06:01 1.45194 103.94685 4695 ft 173 kts 112°
2026-04-26 06:01 1.44667 103.95782 5267 ft 176 kts 112°
2026-04-26 06:01 1.44132 103.96888 5840 ft 177 kts 112°
2026-04-26 06:02 1.43595 103.97982 6437 ft 177 kts 112°
2026-04-26 06:02 1.43064 103.99089 7022 ft 176 kts 113°
2026-04-26 06:02 1.42523 104.00189 7610 ft 176 kts 112°
2026-04-26 06:02 1.41998 104.01286 8192 ft 175 kts 113°
2026-04-26 06:03 1.41401 104.02346 8770 ft 176 kts 126°
2026-04-26 06:03 1.40492 104.03185 9357 ft 177 kts 133°
2026-04-26 06:03 1.39645 104.04053 9923 ft 176 kts 130°
2026-04-26 06:03 1.38758 104.04893 10525 ft 175 kts 131°
2026-04-26 06:04 1.37884 104.05741 11187 ft 175 kts 131°
2026-04-26 06:04 1.36960 104.06632 11917 ft 198 kts 132°
2026-04-26 06:04 1.35910 104.07648 12847 ft 221 kts 133°
2026-04-26 06:04 1.34754 104.08752 13886 ft 236 kts 133°
2026-04-26 06:05 1.33561 104.09903 14806 ft 245 kts 133°
2026-04-26 06:05 1.32305 104.11103 15813 ft 251 kts 133°
2026-04-26 06:05 1.31034 104.12330 16869 ft 256 kts 133°
2026-04-26 06:05 1.29755 104.13556 17964 ft 259 kts 133°
2026-04-26 06:06 1.28451 104.14812 18985 ft 261 kts 134°
2026-04-26 06:06 1.27135 104.16076 19983 ft 262 kts 133°
2026-04-26 06:06 1.25817 104.17343 21003 ft 263 kts 134°
2026-04-26 06:06 1.24515 104.18598 22024 ft 263 kts 134°
2026-04-26 06:07 1.23194 104.19865 23067 ft 262 kts 134°
2026-04-26 06:07 1.21879 104.21134 24000 ft 261 kts 134°
2026-04-26 06:07 1.20571 104.22388 24857 ft 259 kts 133°
2026-04-26 06:07 1.19294 104.23620 25717 ft 258 kts 134°
2026-04-26 06:08 1.18000 104.24863 26590 ft 256 kts 133°
2026-04-26 06:08 1.16722 104.26093 27454 ft 254 kts 134°
2026-04-26 06:08 1.15454 104.27314 28328 ft 252 kts 133°
2026-04-26 06:08 1.14197 104.28520 29190 ft 249 kts 133°
2026-04-26 06:09 1.12967 104.29707 30010 ft 247 kts 133°
2026-04-26 06:09 1.11727 104.30895 30690 ft 245 kts 133°
2026-04-26 06:09 1.10503 104.32078 31339 ft 243 kts 134°
2026-04-26 06:09 1.09278 104.33251 31988 ft 242 kts 134°
2026-04-26 06:10 1.08079 104.34410 32612 ft 241 kts 134°
2026-04-26 06:10 1.06867 104.35571 33228 ft 240 kts 134°
2026-04-26 06:10 1.05663 104.36732 33824 ft 240 kts 135°
2026-04-26 06:10 1.04473 104.37875 34327 ft 239 kts 134°
2026-04-26 06:11 1.03274 104.39030 34821 ft 239 kts 135°
2026-04-26 06:11 1.02070 104.40187 35306 ft 239 kts 134°
2026-04-26 06:11 1.00884 104.41327 35771 ft 239 kts 135°
2026-04-26 06:11 0.99683 104.42486 36235 ft 239 kts 134°
2026-04-26 06:12 0.98474 104.43644 36693 ft 240 kts 135°
2026-04-26 06:12 0.97273 104.44804 37145 ft 240 kts 135°
2026-04-26 06:12 0.96081 104.45945 37588 ft 241 kts 134°
2026-04-26 06:12 0.94872 104.47110 38016 ft 241 kts 135°
2026-04-26 06:13 0.93663 104.48274 38462 ft 242 kts 134°
2026-04-26 06:13 0.92446 104.49444 38820 ft 243 kts 135°
2026-04-26 06:13 0.91204 104.50675 38853 ft 260 kts 128°
2026-04-26 06:13 0.90260 104.52264 38880 ft 274 kts 109°
2026-04-26 06:14 0.89790 104.54166 38889 ft 290 kts 99°
2026-04-26 06:14 0.89401 104.56211 38889 ft 307 kts 100°
2026-04-26 06:14 0.88980 104.58332 38890 ft 323 kts 101°
2026-04-26 06:14 0.88523 104.60582 38892 ft 338 kts 101°
2026-04-26 06:15 0.88046 104.62934 38889 ft 352 kts 101°
2026-04-26 06:15 0.87555 104.65385 38888 ft 366 kts 101°
2026-04-26 06:15 0.87053 104.67901 38888 ft 378 kts 101°
2026-04-26 06:15 0.86524 104.70524 38885 ft 390 kts 101°
2026-04-26 06:16 0.85981 104.73218 38881 ft 400 kts 101°
2026-04-26 06:16 0.84859 104.78807 38880 ft 418 kts 101°
2026-04-26 06:17 0.83730 104.84414 38881 ft 407 kts 101°
2026-04-26 06:17 0.82609 104.90000 38876 ft 411 kts 101°
2026-04-26 06:18 0.81481 104.95607 38872 ft 414 kts 101°
2026-04-26 06:18 0.80340 105.01284 38871 ft 416 kts 101°
2026-04-26 06:19 0.79200 105.06947 38874 ft 418 kts 101°
2026-04-26 06:19 0.78056 105.12632 38870 ft 414 kts 101°
2026-04-26 06:20 0.76934 105.18208 38868 ft 410 kts 101°
2026-04-26 06:20 0.75811 105.23797 38866 ft 409 kts 101°
2026-04-26 06:21 0.74688 105.29381 38863 ft 410 kts 101°
2026-04-26 06:21 0.73571 105.34937 38864 ft 410 kts 101°
2026-04-26 06:22 0.72446 105.40532 38863 ft 410 kts 101°
2026-04-26 06:22 0.71321 105.46123 38862 ft 410 kts 101°
2026-04-26 06:23 0.70201 105.51681 38864 ft 410 kts 101°
2026-04-26 06:23 0.69075 105.57280 38860 ft 410 kts 101°
2026-04-26 06:24 0.67957 105.62841 38863 ft 410 kts 101°
2026-04-26 06:24 0.66831 105.68441 38859 ft 410 kts 101°
2026-04-26 06:25 0.65708 105.74030 38859 ft 410 kts 101°
2026-04-26 06:25 0.64591 105.79588 38858 ft 410 kts 101°
2026-04-26 06:26 0.63465 105.85184 38855 ft 410 kts 101°
2026-04-26 06:26 0.62340 105.90769 38859 ft 410 kts 101°
2026-04-26 06:27 0.61220 105.96336 38858 ft 409 kts 101°
2026-04-26 06:27 0.60100 106.01903 38857 ft 409 kts 101°
2026-04-26 06:28 0.58978 106.07483 38860 ft 409 kts 101°
2026-04-26 06:28 0.57859 106.13047 38856 ft 409 kts 101°
2026-04-26 06:29 0.56740 106.18609 38856 ft 409 kts 101°
2026-04-26 06:29 0.55618 106.24189 38856 ft 409 kts 101°
2026-04-26 06:30 0.54499 106.29746 38857 ft 408 kts 101°
2026-04-26 06:30 0.53381 106.35299 38857 ft 408 kts 101°
2026-04-26 06:31 0.52260 106.40866 38854 ft 408 kts 101°
2026-04-26 06:31 0.51148 106.46389 38859 ft 407 kts 101°
2026-04-26 06:32 0.50034 106.51927 38861 ft 407 kts 101°
2026-04-26 06:32 0.48920 106.57463 38859 ft 406 kts 101°
2026-04-26 06:33 0.47805 106.63006 38858 ft 406 kts 101°
2026-04-26 06:33 0.46690 106.68550 38858 ft 406 kts 101°
2026-04-26 06:34 0.45585 106.74034 38856 ft 405 kts 101°
2026-04-26 06:34 0.44466 106.79591 38852 ft 405 kts 101°
2026-04-26 06:35 0.43363 106.85063 38855 ft 405 kts 101°
2026-04-26 06:35 0.42249 106.90599 38851 ft 404 kts 101°
2026-04-26 06:36 0.41145 106.96079 38854 ft 404 kts 101°
2026-04-26 06:36 0.40038 107.01571 38850 ft 404 kts 101°
2026-04-26 06:37 0.39109 107.06180 38850 ft 404 kts 101°
2026-04-26 06:37 0.37995 107.11702 38847 ft 405 kts 102°
2026-04-26 06:38 0.36888 107.17190 38846 ft 405 kts 102°
2026-04-26 06:38 0.35771 107.22723 38843 ft 406 kts 102°
2026-04-26 06:39 0.34655 107.28253 38842 ft 407 kts 102°
2026-04-26 06:39 0.33536 107.33800 38844 ft 407 kts 102°
2026-04-26 06:40 0.32418 107.39351 38844 ft 408 kts 102°
2026-04-26 06:40 0.31296 107.44914 38843 ft 408 kts 102°
2026-04-26 06:41 0.30181 107.50439 38841 ft 408 kts 102°
2026-04-26 06:41 0.29059 107.56003 38844 ft 409 kts 102°
2026-04-26 06:42 0.27937 107.61556 38841 ft 409 kts 102°
2026-04-26 06:42 0.26811 107.67138 38843 ft 409 kts 102°
2026-04-26 06:43 0.25684 107.72718 38842 ft 409 kts 102°
2026-04-26 06:43 0.24564 107.78270 38841 ft 409 kts 101°
2026-04-26 06:44 0.23437 107.83862 38845 ft 409 kts 101°
2026-04-26 06:44 0.22319 107.89407 38841 ft 409 kts 101°
2026-04-26 06:45 0.21190 107.95001 38842 ft 409 kts 101°
2026-04-26 06:45 0.20067 108.00563 38841 ft 409 kts 101°
2026-04-26 06:46 0.18945 108.06118 38842 ft 409 kts 101°
2026-04-26 06:46 0.17820 108.11694 38843 ft 409 kts 101°
2026-04-26 06:47 0.16695 108.17271 38838 ft 409 kts 101°
2026-04-26 06:47 0.15573 108.22833 38842 ft 409 kts 101°
2026-04-26 06:48 0.14447 108.28414 38840 ft 409 kts 101°
2026-04-26 06:48 0.13323 108.33988 38839 ft 409 kts 101°
2026-04-26 06:49 0.12205 108.39522 38839 ft 408 kts 101°
2026-04-26 06:49 0.11079 108.45096 38843 ft 408 kts 101°
2026-04-26 06:50 0.09962 108.50637 38840 ft 408 kts 101°
2026-04-26 06:50 0.08835 108.56216 38841 ft 408 kts 101°
2026-04-26 06:51 0.07721 108.61745 38838 ft 408 kts 101°
2026-04-26 06:51 0.06037 108.70079 38839 ft 408 kts 101°
2026-04-26 06:52 0.04912 108.75658 38833 ft 408 kts 100°
2026-04-26 06:52 0.03791 108.81211 38836 ft 408 kts 100°
2026-04-26 06:53 0.02676 108.86740 38836 ft 408 kts 100°
2026-04-26 06:53 0.01553 108.92305 38831 ft 408 kts 100°
2026-04-26 06:54 0.00427 108.97887 38831 ft 408 kts 101°
2026-04-26 06:54 -0.00707 109.03408 38827 ft 408 kts 101°
2026-04-26 06:55 -0.01900 109.08965 38825 ft 408 kts 101°
2026-04-26 06:55 -0.03057 109.14488 38818 ft 408 kts 101°
2026-04-26 06:56 -0.04233 109.20043 38812 ft 409 kts 101°
2026-04-26 06:56 -0.05407 109.25612 38810 ft 409 kts 101°
2026-04-26 06:57 -0.06575 109.31145 38805 ft 409 kts 101°
2026-04-26 06:57 -0.07752 109.36720 38803 ft 409 kts 101°
2026-04-26 06:58 -0.08739 109.42293 38801 ft 409 kts 99°
2026-04-26 06:58 -0.09736 109.47893 38802 ft 409 kts 99°
2026-04-26 06:59 -0.10705 109.53506 38803 ft 410 kts 99°
2026-04-26 06:59 -0.11688 109.59126 38803 ft 410 kts 99°
2026-04-26 07:00 -0.12667 109.64751 38804 ft 411 kts 99°
2026-04-26 07:00 -0.13649 109.70385 38807 ft 411 kts 99°
2026-04-26 07:01 -0.14626 109.75983 38807 ft 412 kts 99°
2026-04-26 07:01 -0.15612 109.81635 38806 ft 412 kts 99°
2026-04-26 07:02 -0.16599 109.87294 38807 ft 413 kts 99°
2026-04-26 07:02 -0.17581 109.92925 38808 ft 413 kts 99°
2026-04-26 07:03 -0.18567 109.98591 38808 ft 414 kts 99°
2026-04-26 07:03 -0.19550 110.04225 38806 ft 414 kts 99°
2026-04-26 07:04 -0.20539 110.09897 38806 ft 414 kts 99°
2026-04-26 07:04 -0.21531 110.15582 38813 ft 414 kts 99°
2026-04-26 07:05 -0.22519 110.21253 38810 ft 414 kts 99°
2026-04-26 07:05 -0.23502 110.26895 38814 ft 414 kts 99°
2026-04-26 07:06 -0.24491 110.32569 38812 ft 414 kts 99°
2026-04-26 07:06 -0.25475 110.38216 38812 ft 414 kts 99°
2026-04-26 07:07 -0.26467 110.43902 38815 ft 414 kts 99°
2026-04-26 07:07 -0.27452 110.49561 38815 ft 415 kts 99°